Albert Lea, MN

9:49 AM CST on February 20, 2017 (GMT -0600)
Albert Lea Municipal

Weather History for KAEL - August, 2014

Change the Weather History Date:

Thursday, August 14, 2014

  Actual Average Record
Temperature  
Mean Temperature 70 °F -  
Max Temperature 80 °F 75 °F 87 °F (2015)
Min Temperature 60 °F 57 °F 46 °F (2004)
Cooling Degree Days 5    
Growing Degree Days 20 (Base 50)    
Moisture  
Dew Point 55 °F    
Average Humidity 61    
Maximum Humidity 83    
Minimum Humidity 38    
Precipitation  
Precipitation 0.00 in - - ()
Sea Level Pressure  
Sea Level Pressure 30.09 in    
Wind  
Wind Speed 5 mph (SE)    
Max Wind Speed 14 mph    
Max Gust Speed -    
Visibility 10 miles    
Events      
Averages and records for this station are not official NWS values.
T = Trace of Precipitation, MM = Missing Value Source: NWS Daily Summary

Daily Weather History Graph

Daily Weather History Graph

Search for Another Location

Airport or City:

Trip Planner

Search our weather history database for the weather conditions in past years. The results will help you decide how hot, cold, wet, or windy it might be!

Date:

Astronomy

Aug. 14, 2014 Rise Set
Actual Time 6:16 AM CDT 8:18 PM CDT
Civil Twilight 5:45 AM CDT 8:49 PM CDT
Nautical Twilight 5:07 AM CDT 9:27 PM CDT
Astronomical Twilight 4:25 AM CDT 10:09 PM CDT
Moon 10:30 PM CDT (8/14) 11:04 AM CDT (8/14)
Length of Visible Light 15h 03m
Length of Day
14h 01m
Waning Gibbous, 79% of the Moon is Illuminated
Aug 14
Waning Gibbous
Aug 17
Last Quarter
Aug 25
New
Sep 2
First Quarter
Sep 8
Full

Hourly Weather History & Observations

Time (CDT) Temp. Heat Index Dew Point Humidity Pressure Visibility Wind Dir Wind Speed Gust Speed Precip Events Conditions
12:33 AM 66.2 °F - 60.8 °F 83% 30.11 in 10.0 mi North 4.6 mph - N/A   Mostly Cloudy
12:52 AM 66.2 °F - 59.0 °F 78% 30.10 in 10.0 mi East 4.6 mph - N/A   Mostly Cloudy
1:13 AM 66.2 °F - 57.2 °F 73% 30.11 in 10.0 mi ESE 3.5 mph - N/A   Scattered Clouds
1:33 AM 64.4 °F - 57.2 °F 77% 30.11 in 10.0 mi ESE 4.6 mph - N/A   Scattered Clouds
1:52 AM 64.4 °F - 57.2 °F 77% 30.10 in 10.0 mi East 3.5 mph - N/A   Clear
2:13 AM 64.4 °F - 57.2 °F 77% 30.10 in 10.0 mi Calm Calm - N/A   Clear
2:33 AM 62.6 °F - 57.2 °F 82% 30.10 in 10.0 mi East 3.5 mph - N/A   Clear
2:52 AM 62.6 °F - 57.2 °F 82% 30.11 in 10.0 mi Calm Calm - N/A   Scattered Clouds
3:13 AM 62.6 °F - 55.4 °F 77% 30.10 in 10.0 mi ESE 3.5 mph - N/A   Scattered Clouds
3:33 AM 62.6 °F - 55.4 °F 77% 30.10 in 10.0 mi Calm Calm - N/A   Clear
3:52 AM 62.6 °F - 55.4 °F 77% 30.10 in 10.0 mi East 3.5 mph - N/A   Clear
4:13 AM 60.8 °F - 55.4 °F 82% 30.10 in 10.0 mi East 3.5 mph - N/A   Clear
4:33 AM 62.6 °F - 55.4 °F 77% 30.11 in 10.0 mi East 3.5 mph - N/A   Clear
4:53 AM 60.8 °F - 55.4 °F 82% 30.12 in 10.0 mi ESE 3.5 mph - N/A   Mostly Cloudy
5:13 AM 62.6 °F - 53.6 °F 72% 30.11 in 10.0 mi ESE 4.6 mph - N/A   Mostly Cloudy
5:33 AM 62.6 °F - 53.6 °F 72% 30.12 in 10.0 mi ESE 4.6 mph - N/A   Scattered Clouds
5:53 AM 60.8 °F - 53.6 °F 77% 30.12 in 10.0 mi ESE 4.6 mph - N/A   Clear
6:13 AM 60.8 °F - 53.6 °F 77% 30.12 in 10.0 mi SE 3.5 mph - N/A   Clear
6:33 AM 60.8 °F - 53.6 °F 77% 30.12 in 10.0 mi SE 3.5 mph - N/A   Clear
6:53 AM 60.8 °F - 53.6 °F 77% 30.12 in 10.0 mi SE 4.6 mph - N/A   Clear
7:13 AM 60.8 °F - 53.6 °F 77% 30.13 in 10.0 mi SE 4.6 mph - N/A   Clear
7:33 AM 62.6 °F - 51.8 °F 68% 30.14 in 10.0 mi SE 5.8 mph - N/A   Scattered Clouds
7:52 AM 62.6 °F - 51.8 °F 68% 30.14 in 10.0 mi SE 6.9 mph - N/A   Scattered Clouds
8:13 AM 62.6 °F - 51.8 °F 68% 30.14 in 10.0 mi SE 5.8 mph - N/A   Clear
8:32 AM 64.4 °F - 51.8 °F 64% 30.14 in 10.0 mi SE 8.1 mph - N/A   Clear
8:53 AM 66.2 °F - 50.0 °F 56% 30.15 in 10.0 mi SE 8.1 mph - N/A   Clear
9:13 AM 66.2 °F - 48.2 °F 52% 30.14 in 10.0 mi SE 12.7 mph - N/A   Clear
9:32 AM 68.0 °F - 46.4 °F 46% 30.14 in 10.0 mi SE 13.8 mph - N/A   Clear
9:53 AM 69.8 °F - 46.4 °F 43% 30.14 in 10.0 mi SE 10.4 mph - N/A   Clear
10:13 AM 71.6 °F - 44.6 °F 38% 30.14 in 10.0 mi SE 11.5 mph - N/A   Clear
10:32 AM 71.6 °F - 44.6 °F 38% 30.14 in 10.0 mi SE 10.4 mph - N/A   Clear
10:53 AM 73.4 °F - 46.4 °F 38% 30.13 in 10.0 mi SE 9.2 mph - N/A   Clear
11:13 AM 73.4 °F - 48.2 °F 41% 30.13 in 10.0 mi South 10.4 mph - N/A   Clear
11:33 AM 75.2 °F - 48.2 °F 38% 30.12 in 10.0 mi SE 6.9 mph - N/A   Clear
11:53 AM 75.2 °F - 48.2 °F 38% 30.12 in 10.0 mi South 5.8 mph - N/A   Clear
12:13 PM 75.2 °F - 50.0 °F 41% 30.12 in 10.0 mi South 8.1 mph - N/A   Clear
12:32 PM 75.2 °F - 51.8 °F 44% 30.12 in 10.0 mi SSE 4.6 mph - N/A   Clear
12:53 PM 78.8 °F - 51.8 °F 39% 30.11 in 10.0 mi SSE 6.9 mph - N/A   Clear
1:13 PM 77.0 °F - 53.6 °F 44% 30.10 in 10.0 mi SSE 5.8 mph - N/A   Clear
1:32 PM 77.0 °F - 53.6 °F 44% 30.10 in 10.0 mi SSE 4.6 mph - N/A   Clear
1:53 PM 77.0 °F - 53.6 °F 44% 30.10 in 10.0 mi SE 6.9 mph - N/A   Clear
2:13 PM 78.8 °F - 55.4 °F 44% 30.09 in 10.0 mi SSE 6.9 mph - N/A   Clear
2:32 PM 78.8 °F - 55.4 °F 44% 30.09 in 10.0 mi South 4.6 mph - N/A   Clear
2:53 PM 78.8 °F - 55.4 °F 44% 30.08 in 10.0 mi South 6.9 mph - N/A   Clear
3:13 PM 78.8 °F - 57.2 °F 47% 30.07 in 10.0 mi SE 5.8 mph - N/A   Clear
3:32 PM 78.8 °F - 57.2 °F 47% 30.07 in 10.0 mi SE 6.9 mph - N/A   Clear
3:53 PM 78.8 °F - 57.2 °F 47% 30.06 in 10.0 mi South 5.8 mph - N/A   Clear
4:13 PM 78.8 °F - 57.2 °F 47% 30.06 in 10.0 mi South 6.9 mph - N/A   Clear
4:32 PM 78.8 °F - 57.2 °F 47% 30.06 in 10.0 mi South 6.9 mph - N/A   Clear
4:53 PM 80.6 °F 80.8 °F 57.2 °F 45% 30.05 in 10.0 mi South 5.8 mph - N/A   Clear
5:13 PM 78.8 °F - 57.2 °F 47% 30.05 in 10.0 mi South 4.6 mph - N/A   Clear
5:32 PM 77.0 °F - 59.0 °F 54% 30.04 in 10.0 mi SSW 3.5 mph - N/A   Clear
5:53 PM 78.8 °F - 59.0 °F 51% 30.04 in 10.0 mi South 4.6 mph - N/A   Clear
6:13 PM 77.0 °F - 60.8 °F 57% 30.04 in 10.0 mi South 3.5 mph - N/A   Scattered Clouds
6:32 PM 78.8 °F - 60.8 °F 54% 30.03 in 10.0 mi SE 5.8 mph - N/A   Scattered Clouds
6:53 PM 77.0 °F - 60.8 °F 57% 30.02 in 10.0 mi SE 5.8 mph - N/A   Clear
7:13 PM 75.2 °F - 60.8 °F 61% 30.01 in 10.0 mi ESE 5.8 mph - N/A   Scattered Clouds
7:32 PM 75.2 °F - 60.8 °F 61% 30.01 in 10.0 mi SE 5.8 mph - N/A   Clear
7:53 PM 73.4 °F - 60.8 °F 65% 30.01 in 10.0 mi SE 5.8 mph - N/A   Clear
8:12 PM 71.6 °F - 60.8 °F 69% 30.02 in 10.0 mi SSE 4.6 mph - N/A   Clear
8:33 PM 71.6 °F - 60.8 °F 69% 30.02 in 10.0 mi SSE 4.6 mph - N/A   Clear
8:52 PM 69.8 °F - 60.8 °F 73% 30.01 in 10.0 mi SSE 4.6 mph - N/A   Clear
9:13 PM 71.6 °F - 60.8 °F 69% 30.02 in 10.0 mi SSE 4.6 mph - N/A   Clear
9:33 PM 71.6 °F - 60.8 °F 69% 30.02 in 10.0 mi SSE 5.8 mph - N/A   Clear
9:53 PM 71.6 °F - 60.8 °F 69% 30.02 in 10.0 mi SSE 6.9 mph - N/A   Clear
10:13 PM 71.6 °F - 60.8 °F 69% 30.03 in 10.0 mi SSE 5.8 mph - N/A   Clear
10:33 PM 71.6 °F - 60.8 °F 69% 30.02 in 10.0 mi SSE 6.9 mph - N/A   Clear
10:53 PM 69.8 °F - 59.0 °F 68% 30.03 in 10.0 mi South 5.8 mph - N/A   Clear
11:13 PM 69.8 °F - 59.0 °F 68% 30.04 in 10.0 mi SSE 5.8 mph - N/A   Clear
11:33 PM 69.8 °F - 59.0 °F 68% 30.03 in 10.0 mi South 5.8 mph - N/A   Clear
11:52 PM 69.8 °F - 59.0 °F 68% 30.03 in 10.0 mi South 3.5 mph - N/A   Clear